Total_Precipitation_Accumulation
0.10 0.10 0.09 0.08 0.08 0.08 0.07 0.06 0.04 0.03 0.02 0.01 0.01 0.01 0.00 0.00 0.00 0.00 0.00 0.00 0.00 0.00 0.00 0.04 0.09 0.31 1.23 1.73 1.65 2.04 5.87 4.52 2.57 1.10 2.61 1.44 1.30 1.12 0.87 0.37 0.39 0.34 0.13 0.02 0.02
0.10 0.09 0.08 0.07 0.07 0.08 0.07 0.05 0.04 0.03 0.02 0.02 0.02 0.00 0.00 0.01 0.00 0.00 0.00 0.00 0.00 0.00 0.02 0.04 0.13 0.35 0.90 1.78 0.66 2.66 4.67 2.78 1.27 0.58 1.11 2.06 1.42 1.24 0.98 0.77 0.52 0.58 0.22 0.03 0.04
0.10 0.09 0.08 0.07 0.08 0.08 0.06 0.03 0.04 0.02 0.02 0.02 0.01 0.00 0.00 0.00 0.00 0.00 0.00 0.00 0.00 0.00 0.00 0.08 0.18 0.69 0.91 0.46 0.52 2.28 3.89 2.03 0.77 0.51 0.83 1.34 1.07 0.75 1.06 1.00 0.45 0.29 0.10 0.01 0.01
0.10 0.08 0.08 0.07 0.07 0.06 0.04 0.03 0.03 0.03 0.02 0.01 0.01 0.00 0.00 0.00 0.00 0.00 0.00 0.00 0.00 0.00 0.00 0.24 0.25 0.70 1.01 0.38 0.53 1.21 1.01 1.61 1.36 0.94 0.50 1.04 2.22 0.72 1.71 1.80 0.50 0.30 0.05 0.00 0.01
0.08 0.06 0.06 0.05 0.05 0.04 0.03 0.03 0.02 0.03 0.02 0.01 0.01 0.01 0.00 0.00 0.00 0.00 0.00 0.00 0.00 0.00 0.00 0.20 0.17 0.99 0.77 0.49 0.58 0.75 0.91 1.06 1.21 0.53 0.60 0.75 1.20 0.91 1.14 0.89 0.45 0.29 0.05 0.01 0.01
0.08 0.06 0.05 0.05 0.04 0.03 0.03 0.03 0.03 0.03 0.02 0.01 0.02 0.01 0.00 0.00 0.00 0.00 0.00 0.00 0.00 0.00 0.02 0.14 0.30 0.44 0.79 0.41 0.69 0.60 0.84 1.23 1.64 1.23 0.93 0.85 0.98 0.68 0.83 0.69 0.45 0.31 0.04 0.02 0.02
0.08 0.07 0.06 0.05 0.03 0.02 0.02 0.03 0.02 0.02 0.02 0.03 0.03 0.01 0.00 0.00 0.00 0.00 0.00 0.00 0.00 0.00 0.01 0.17 0.16 0.16 0.33 0.43 0.49 0.43 0.87 1.35 1.84 2.11 1.95 1.54 3.09 1.44 0.79 0.62 0.45 0.24 0.13 0.05 0.10
0.07 0.06 0.04 0.03 0.03 0.01 0.01 0.01 0.01 0.01 0.01 0.02 0.02 0.00 0.00 0.00 0.00 0.00 0.00 0.00 0.00 0.00 0.01 0.09 0.17 0.14 0.35 0.31 0.44 0.80 1.33 2.94 2.91 2.27 2.65 2.21 4.60 2.74 1.56 1.83 0.53 0.47 0.46 0.18 0.79
0.07 0.05 0.04 0.03 0.02 0.01 0.00 0.00 0.00 0.00 0.00 0.00 0.00 0.00 0.00 0.00 0.00 0.00 0.00 0.00 0.00 0.00 0.00 0.04 0.07 0.07 0.22 0.53 0.62 1.15 1.77 2.11 3.52 2.89 3.19 2.58 4.33 3.12 1.45 1.17 0.87 0.36 0.89 0.31 0.88
0.06 0.05 0.03 0.02 0.02 0.01 0.00 0.00 0.00 0.00 0.00 0.00 0.00 0.00 0.00 0.00 0.00 0.00 0.00 0.00 0.00 0.00 0.00 0.00 0.01 0.03 0.12 0.54 2.39 1.53 1.73 1.71 2.23 3.47 3.19 2.82 3.18 2.96 1.75 1.40 1.21 0.56 0.56 0.52 0.53
0.06 0.05 0.04 0.02 0.01 0.03 0.01 0.01 0.00 0.00 0.00 0.00 0.00 0.00 0.00 0.00 0.00 0.00 0.00 0.00 0.00 0.00 0.00 0.00 0.00 0.03 0.14 0.37 0.63 0.62 0.98 1.67 1.94 2.41 3.57 3.10 2.40 2.99 1.82 1.15 1.43 1.03 0.74 0.85 0.89
0.06 0.05 0.04 0.02 0.01 0.01 0.00 0.00 0.00 0.00 0.00 0.00 0.00 0.00 0.00 0.00 0.00 0.00 0.00 0.00 0.00 0.00 0.00 0.00 0.01 0.04 0.06 0.08 0.11 0.30 0.66 1.71 1.76 2.30 2.17 2.90 2.16 2.30 2.43 1.33 0.97 1.02 1.02 1.27 1.23
0.05 0.06 0.04 0.01 0.01 0.01 0.00 0.00 0.00 0.00 0.00 0.00 0.00 0.00 0.00 0.00 0.00 0.00 0.00 0.00 0.00 0.00 0.00 0.00 0.02 0.03 0.05 0.07 0.15 0.29 0.39 1.22 2.11 2.01 2.24 2.09 2.80 2.12 2.19 2.14 1.21 1.12 0.73 0.71 0.85
0.05 0.04 0.04 0.01 0.00 0.00 0.00 0.00 0.00 0.00 0.00 0.00 0.00 0.00 0.00 0.00 0.00 0.00 0.00 0.00 0.00 0.00 0.00 0.00 0.02 0.08 0.09 0.08 0.15 0.47 0.44 1.08 1.92 1.94 2.03 1.67 1.89 2.03 2.08 2.00 2.14 1.41 0.55 0.46 0.37
0.04 0.04 0.06 0.02 0.00 0.00 0.00 0.00 0.00 0.00 0.00 0.00 0.00 0.00 0.00 0.00 0.00 0.00 0.00 0.00 0.00 0.00 0.00 0.00 0.00 0.03 0.09 0.05 0.14 0.22 0.22 0.43 1.25 1.50 1.33 1.00 1.09 1.42 2.11 1.90 2.03 1.68 0.64 0.52 0.38
0.02 0.04 0.09 0.00 0.00 0.00 0.00 0.00 0.00 0.00 0.00 0.00 0.00 0.00 0.00 0.00 0.00 0.00 0.00 0.00 0.00 0.00 0.00 0.00 0.02 0.03 0.03 0.07 0.16 0.11 0.25 0.28 0.73 1.55 1.47 0.83 0.71 1.17 1.16 1.24 1.49 1.43 1.14 0.58 0.33
0.02 0.03 0.06 0.00 0.00 0.00 0.00 0.00 0.01 0.04 0.01 0.00 0.00 0.00 0.00 0.00 0.00 0.00 0.00 0.00 0.00 0.00 0.00 0.00 0.00 0.02 0.03 0.10 0.18 0.11 0.20 0.40 0.79 1.43 1.65 0.56 0.60 0.78 0.41 0.93 1.06 1.06 1.28 0.64 0.47
0.01 0.00 0.00 0.00 0.00 0.00 0.00 0.01 0.12 0.07 0.00 0.00 0.00 0.00 0.00 0.00 0.00 0.00 0.00 0.00 0.00 0.00 0.00 0.00 0.01 0.01 0.03 0.06 0.15 0.12 0.34 0.71 1.01 0.92 0.60 0.65 0.84 0.61 0.49 0.42 0.45 0.53 0.59 0.95 0.66
0.00 0.00 0.00 0.00 0.00 0.00 0.00 0.06 0.08 0.06 0.00 0.00 0.00 0.00 0.00 0.00 0.00 0.00 0.00 0.00 0.00 0.00 0.00 0.00 0.01 0.00 0.01 0.02 0.04 0.10 0.28 0.47 0.32 0.27 0.40 0.90 1.04 0.68 0.46 0.44 0.21 0.26 0.37 0.54 0.77
0.00 0.00 0.00 0.00 0.00 0.00 0.00 0.01 0.00 0.00 0.00 0.00 0.00 0.00 0.01 0.00 0.00 0.00 0.00 0.00 0.00 0.01 0.00 0.00 0.01 0.01 0.01 0.04 0.07 0.07 0.17 0.22 0.17 0.38 1.14 0.74 1.36 1.56 0.65 0.45 0.38 0.34 0.31 0.33 0.79
0.00 0.00 0.00 0.00 0.00 0.01 0.02 0.01 0.00 0.00 0.00 0.00 0.01 0.01 0.01 0.01 0.00 0.01 0.00 0.01 0.01 0.04 0.01 0.00 0.01 0.01 0.01 0.01 0.04 0.05 0.04 0.14 0.16 0.25 0.67 0.39 0.91 1.38 1.20 0.31 0.22 0.31 0.34 0.38 0.75
0.00 0.00 0.00 0.00 0.00 0.01 0.02 0.00 0.00 0.00 0.00 0.00 0.00 0.01 0.03 0.03 0.03 0.04 0.07 0.09 0.03 0.03 0.04 0.03 0.05 0.02 0.02 0.01 0.01 0.03 0.02 0.04 0.07 0.23 0.21 0.20 0.36 0.49 0.48 0.26 0.40 0.42 0.43 0.82 1.12
0.00 0.01 0.02 0.01 0.00 0.01 0.00 0.00 0.00 0.00 0.01 0.02 0.02 0.01 0.04 0.09 0.14 0.15 0.13 0.06 0.06 0.04 0.10 0.12 0.09 0.03 0.03 0.02 0.01 0.03 0.04 0.04 0.06 0.16 0.48 0.47 0.64 0.60 0.39 0.38 0.56 0.19 0.57 0.86 0.53
0.03 0.01 0.09 0.01 0.00 0.01 0.01 0.01 0.00 0.02 0.04 0.04 0.05 0.01 0.00 0.03 0.07 0.21 0.21 0.09 0.05 0.04 0.17 0.26 0.11 0.03 0.06 0.09 0.08 0.12 0.06 0.04 0.06 0.33 0.42 0.35 0.29 0.65 0.18 0.22 0.32 0.32 0.39 0.55 0.80
0.09 0.08 0.36 0.03 0.00 0.04 0.09 0.05 0.06 0.04 0.04 0.07 0.29 0.17 0.06 0.08 0.06 0.21 0.24 0.09 0.10 0.11 0.18 0.19 0.09 0.02 0.05 0.12 0.05 0.07 0.18 0.23 0.13 0.12 0.09 0.13 0.08 0.18 0.39 0.36 0.41 0.47 0.45 0.50 0.45
0.13 0.24 0.44 0.09 0.04 0.03 0.06 0.11 0.10 0.05 0.06 0.08 0.26 0.21 0.22 0.26 0.14 0.19 0.20 0.27 0.20 0.13 0.16 0.09 0.07 0.04 0.02 0.03 0.15 0.09 0.02 0.03 0.08 0.04 0.06 0.07 0.14 0.45 0.85 1.14 0.46 0.19 0.17 0.46 0.87
0.18 0.21 0.46 0.27 0.12 0.15 0.11 0.16 0.14 0.24 0.24 0.21 0.40 0.39 0.18 0.16 0.13 0.09 0.12 0.17 0.17 0.15 0.18 0.17 0.20 0.18 0.06 0.05 0.13 0.19 0.07 0.05 0.04 0.06 0.08 0.13 0.09 0.25 0.72 1.15 0.48 0.32 0.52 0.91 1.69